Location: Unspecified
(40.7945°N, 0.0000°E)
Time: 10:10:37
(UTC+00:00)

deb Explorer IX - Pass Details

Date: 28 January 2021
Orbit: 538 x 1101 km, 38.8° (Epoch: 07 March)

Event Time Altitude Azimuth Distance (km) Brightness Sun altitude
Rises 18:16:37 0° 268° (W) 3,780 ? -12.3°
Reaches altitude 10° 18:19:28 10° 267° (W) 2,762 ? -12.8°
Maximum altitude 18:26:06 75° 183° (S) 930 ? -14.1°
Enters shadow 18:30:17 20° 101° (E) 1,844 ? -14.8°
